Wind_Speed
22 23 26 30 31 34 39 25 26 31 19 24 34 41 40 36 32 28 34 29 27 23 20 17 12 11 16 19 20 10 6 7 15 22 28 30 27 24 23 24 21 19 22 19
26 24 25 28 33 36 39 33 29 38 25 24 28 36 37 39 38 34 31 33 32 32 22 16 11 11 18 18 19 14 1 7 9 10 15 20 21 21 19 17 13 11 8 9
26 29 29 29 33 39 39 37 35 32 30 33 30 30 42 43 41 38 35 38 37 27 25 17 11 11 17 13 23 20 1 13 8 10 8 9 11 12 12 11 10 7 7 15
17 24 30 33 34 34 38 42 40 38 33 33 31 34 37 45 42 41 41 37 39 37 26 20 11 10 13 11 18 18 13 14 14 13 8 5 6 8 8 11 8 9 12 13
18 18 21 28 35 35 39 42 44 43 46 35 31 36 34 38 38 30 31 38 36 35 32 27 23 14 11 11 13 17 16 4 20 18 12 10 8 12 11 7 11 13 12 21
23 23 21 20 24 32 39 42 44 47 50 48 39 34 32 31 37 25 23 27 36 37 33 30 28 19 10 5 10 14 14 12 14 21 15 10 15 13 12 8 9 16 20 20
22 25 26 25 24 24 27 34 42 46 49 51 50 45 40 39 38 44 25 28 27 25 20 25 25 19 13 14 13 15 17 13 1 16 16 11 14 14 11 6 13 20 22 20
11 18 26 29 27 26 26 29 36 41 46 48 49 51 52 45 40 38 27 30 28 21 18 22 23 20 12 13 14 13 15 14 1 11 18 13 15 13 7 6 18 26 19 14
18 15 20 27 28 28 27 28 32 36 40 46 46 47 51 47 46 33 32 23 25 21 22 26 30 24 14 11 19 14 11 12 4 8 14 12 12 11 13 16 20 20 22 17
22 19 16 23 28 28 28 26 28 33 38 43 43 44 46 48 49 40 40 29 27 24 24 25 27 29 20 16 19 14 9 9 8 10 11 11 6 7 13 23 22 23 20 17
19 20 16 22 25 27 26 25 24 26 34 39 39 44 47 43 46 48 48 38 35 32 33 28 24 24 24 28 22 18 13 7 5 8 11 7 9 7 16 28 27 24 20 19
24 22 16 15 22 26 27 25 20 21 28 34 35 43 39 40 42 47 49 54 48 41 33 29 34 29 26 31 31 28 22 5 7 16 12 6 7 13 22 27 24 24 26 23
27 25 24 22 21 23 25 23 20 17 21 31 37 40 37 36 39 44 52 54 52 45 35 34 35 40 32 35 34 31 26 15 16 19 16 12 11 13 20 24 26 25 24 26
29 29 26 22 26 22 23 23 21 17 22 23 29 32 34 36 39 40 45 54 55 48 47 42 40 43 40 36 39 35 31 28 24 21 18 25 17 20 19 22 25 28 29 28
34 34 32 29 27 22 23 24 18 17 19 21 21 23 31 37 35 36 41 42 49 52 50 47 46 42 42 42 39 35 37 34 26 24 23 21 22 16 23 25 25 29 29 29
36 35 38 30 25 23 19 23 20 19 14 16 18 18 28 30 34 34 39 41 45 51 53 55 44 48 47 39 40 43 41 38 35 30 27 26 31 26 20 20 27 30 30 35
41 42 40 36 27 27 21 20 21 19 15 9 13 16 23 32 33 37 36 38 43 49 55 56 56 51 46 44 44 42 46 45 40 35 34 32 29 29 25 22 24 21 29 31
47 49 47 45 39 31 27 22 22 19 17 12 14 14 20 35 38 38 29 31 39 45 53 55 57 62 63 57 51 49 47 53 47 46 42 39 36 32 24 31 33 28 29 27
56 53 53 49 42 38 31 25 24 21 21 20 18 19 19 27 33 37 36 36 38 36 40 44 54 60 61 60 55 52 50 51 54 50 49 48 47 43 41 36 38 36 37 38
61 55 55 44 40 39 40 32 30 23 22 21 21 17 24 27 29 23 25 27 31 36 37 39 43 51 55 59 60 57 54 53 55 58 55 54 53 50 43 40 38 36 37 43
64 54 50 48 42 39 45 40 35 27 25 28 25 21 22 27 30 28 26 27 28 30 32 35 39 43 48 51 57 60 57 55 56 58 61 60 58 56 49 47 45 41 45 45
57 55 56 52 44 41 44 46 41 34 25 25 30 26 24 24 25 29 31 32 31 29 31 33 35 37 41 47 50 57 60 57 58 59 59 60 62 62 57 55 46 47 48 46
63 53 50 50 49 50 52 47 44 43 35 31 25 29 29 26 24 23 26 31 27 25 27 29 32 35 37 38 43 48 53 58 61 62 63 63 62 64 65 64 54 53 60 59
69 61 59 54 53 46 52 52 52 50 38 36 28 29 30 29 25 24 23 22 21 23 24 24 26 30 31 33 36 41 45 50 57 61 65 67 67 66 67 67 66 67 66 68
71 66 62 60 53 51 48 49 54 55 46 39 31 26 28 29 28 27 25 23 22 22 21 24 28 31 31 33 32 33 38 45 48 53 58 65 69 70 70 72 70 70 69 70
72 67 62 57 50 49 49 47 53 53 49 40 31 27 30 30 30 32 28 25 25 25 25 24 24 25 28 31 31 31 33 36 40 44 48 54 61 67 71 74 75 75 74 72
Wind_Direction
235 230 224 220 218 214 205 213 208 204 211 226 220 223 218 221 224 237 239 242 257 279 290 317 337 27 14 19 7 6 203 239 230 235 242 242 239 235 239 250 256 269 264 263
234 232 228 223 218 215 211 216 219 223 220 224 223 223 220 213 220 224 236 245 251 264 275 297 316 333 3 7 23 11 263 217 204 214 218 220 224 229 236 242 247 244 229 221
239 234 228 226 224 218 220 226 226 224 232 228 224 225 219 215 216 227 235 249 253 252 261 267 287 303 353 19 346 358 317 204 189 180 183 206 207 216 244 221 185 167 188 194
242 236 233 227 226 221 229 228 223 216 224 223 223 221 221 221 222 224 231 238 249 250 258 253 276 274 302 338 339 342 357 203 206 200 200 180 218 191 184 176 188 193 186 201
244 237 235 233 228 223 224 229 228 222 222 220 218 217 224 227 227 234 244 240 236 249 251 251 255 251 288 317 342 341 11 251 202 206 212 228 202 159 174 177 199 193 208 164
251 246 235 233 236 232 231 228 228 221 225 224 219 220 226 225 214 219 235 223 231 244 243 247 251 262 240 289 302 321 7 8 208 216 215 223 203 190 189 202 211 189 171 162
255 249 248 242 238 235 242 239 230 228 224 225 224 231 233 222 216 232 254 234 232 237 238 240 234 235 232 254 243 290 328 346 180 197 213 217 206 212 208 245 207 180 172 164
268 257 246 244 244 243 244 245 238 232 228 227 226 225 230 227 234 231 226 231 226 225 236 222 206 209 224 251 260 271 310 329 188 205 203 201 202 224 239 159 165 164 170 173
249 266 256 249 245 242 241 246 241 235 228 228 229 228 230 229 235 222 199 206 205 210 204 207 205 198 191 241 245 277 311 319 216 212 200 197 208 224 230 186 173 191 178 184
270 254 266 247 242 238 241 246 244 234 227 222 223 231 226 228 228 222 204 199 211 205 207 214 205 201 212 218 249 251 252 321 234 206 186 185 214 245 222 189 182 181 189 189
264 249 261 244 245 241 240 243 245 235 225 225 214 221 227 227 226 221 210 202 209 210 209 218 222 207 213 213 228 224 235 250 268 208 207 177 164 171 186 183 182 186 182 170
249 245 239 268 250 245 240 239 244 234 227 222 215 225 215 226 231 223 221 217 222 218 224 221 230 234 219 218 229 223 223 205 295 285 243 196 161 176 183 185 190 191 171 161
238 251 249 256 280 249 243 242 241 237 228 226 219 217 222 221 225 226 224 226 227 228 229 231 226 229 226 219 221 222 220 210 248 240 247 237 263 213 202 203 199 202 211 208
243 238 231 254 281 252 243 240 241 251 227 225 230 222 218 226 225 222 225 230 233 227 224 226 223 221 227 220 224 220 221 224 208 217 235 249 231 233 211 216 217 221 225 233
241 240 228 255 265 252 249 241 242 242 235 226 222 225 217 223 223 223 224 226 232 228 221 224 220 223 229 228 223 219 222 216 211 214 237 237 211 229 232 226 223 227 230 232
243 238 237 240 246 247 254 245 234 238 241 227 220 219 228 220 225 223 221 223 228 229 221 217 221 225 227 228 226 222 224 220 216 221 222 221 232 238 241 242 235 231 236 236
237 235 229 239 231 250 254 259 242 232 225 233 234 213 217 203 215 222 220 224 228 228 225 224 211 206 206 225 237 236 225 224 217 214 219 211 224 226 224 239 243 241 248 248
233 224 231 244 240 241 245 247 264 252 241 232 232 222 216 214 216 227 227 239 231 229 227 228 227 223 232 232 232 233 233 226 226 208 212 219 223 225 230 234 231 237 241 250
234 232 229 239 242 237 228 242 249 258 244 239 232 216 215 226 228 230 233 232 234 232 230 233 229 230 235 236 233 230 231 232 230 224 223 219 230 233 236 241 240 238 235 243
230 230 232 235 236 233 226 227 242 245 244 236 237 227 215 228 234 226 230 231 231 233 234 236 237 236 235 236 235 231 228 230 232 233 232 232 230 231 227 229 234 240 238 243
225 225 229 225 228 232 231 239 235 236 249 234 235 237 233 235 244 244 237 234 232 231 234 237 239 238 236 234 235 236 232 229 232 233 235 238 239 237 231 223 230 232 235 242
227 225 220 225 225 228 233 231 232 232 242 246 239 236 233 236 240 248 252 252 244 239 239 238 240 241 239 237 236 237 238 236 237 238 238 236 238 239 228 224 227 233 235 238
220 218 224 229 235 233 235 240 230 243 228 241 241 240 235 234 238 241 243 249 254 250 243 241 242 243 243 239 238 238 237 240 238 241 241 242 241 238 238 240 236 227 236 242
222 219 221 228 234 237 240 233 236 242 241 234 238 237 235 237 240 243 246 243 245 246 248 249 249 251 256 250 240 240 237 239 240 240 241 244 244 243 240 240 244 243 239 243
225 223 225 229 235 240 231 230 227 236 238 238 240 236 240 241 242 246 244 241 243 249 253 256 255 253 254 256 251 244 240 240 240 242 243 244 246 248 247 246 246 246 248 248
224 225 225 230 231 232 228 227 225 234 235 236 230 231 237 237 241 241 244 246 246 248 254 260 255 248 252 254 254 249 245 245 245 245 245 245 247 247 248 249 250 251 250 249
Height
10899 10901 10903 10905 10907 10909 10912 10916 10919 10919 10924 10924 10929 10933 10937 10943 10947 10947 10950 10955 10957 10960 10961 10963 10962 10959 10955 10950 10946 10945 10948 10950 10952 10954 10957 10959 10962 10963 10963 10962 10965 10969 10968 10969
10894 10896 10897 10900 10901 10903 10906 10909 10912 10912 10916 10918 10924 10929 10933 10936 10940 10943 10945 10947 10952 10955 10959 10960 10960 10957 10955 10954 10950 10946 10945 10947 10949 10951 10953 10955 10958 10959 10960 10958 10962 10965 10965 10967
10887 10889 10892 10893 10893 10895 10900 10902 10904 10907 10910 10914 10918 10922 10927 10930 10934 10938 10940 10941 10946 10950 10953 10956 10956 10955 10954 10952 10949 10949 10945 10945 10947 10948 10951 10954 10956 10956 10957 10958 10960 10962 10964 10968
10880 10881 10883 10887 10888 10893 10893 10893 10898 10901 10903 10908 10913 10917 10920 10921 10928 10931 10934 10937 10940 10945 10948 10951 10952 10951 10952 10951 10950 10949 10945 10943 10944 10948 10950 10953 10955 10955 10957 10959 10960 10962 10962 10967
10876 10876 10876 10878 10881 10886 10886 10886 10891 10897 10900 10906 10909 10912 10914 10916 10922 10927 10930 10932 10935 10938 10943 10946 10947 10948 10950 10949 10950 10949 10944 10942 10944 10946 10949 10952 10953 10954 10956 10959 10960 10960 10962 10966
10870 10870 10872 10873 10874 10877 10878 10879 10883 10889 10891 10897 10903 10904 10904 10910 10917 10921 10925 10928 10931 10933 10938 10941 10944 10946 10948 10949 10948 10947 10943 10942 10943 10946 10949 10951 10952 10955 10956 10957 10957 10959 10961 10965
10863 10865 10866 10867 10869 10871 10870 10871 10875 10878 10883 10888 10896 10899 10900 10905 10912 10915 10921 10923 10925 10927 10931 10934 10939 10942 10945 10944 10945 10944 10941 10939 10939 10943 10947 10950 10951 10954 10956 10955 10952 10955 10960 10964
10858 10858 10857 10858 10861 10864 10864 10863 10865 10869 10875 10879 10886 10892 10892 10901 10905 10914 10919 10918 10921 10922 10923 10927 10931 10937 10940 10942 10943 10945 10941 10939 10938 10940 10943 10947 10950 10952 10954 10953 10952 10954 10959 10963
10852 10851 10851 10852 10853 10855 10856 10855 10856 10860 10866 10871 10878 10883 10887 10895 10896 10909 10912 10912 10914 10915 10919 10923 10929 10930 10935 10939 10940 10941 10941 10940 10938 10940 10942 10946 10951 10951 10952 10953 10954 10957 10959 10962
10845 10844 10844 10845 10845 10847 10848 10848 10849 10851 10855 10860 10870 10873 10878 10884 10889 10899 10905 10906 10909 10912 10915 10920 10923 10927 10931 10934 10937 10939 10940 10942 10941 10940 10942 10946 10949 10950 10948 10950 10954 10957 10960 10963
10838 10837 10837 10837 10838 10840 10841 10842 10843 10844 10846 10852 10861 10864 10867 10874 10879 10888 10895 10899 10903 10907 10911 10914 10917 10922 10924 10928 10931 10934 10938 10941 10943 10942 10943 10947 10948 10948 10949 10950 10954 10957 10960 10963
10830 10830 10830 10830 10833 10833 10834 10835 10838 10838 10841 10845 10853 10856 10865 10868 10870 10878 10884 10891 10896 10902 10904 10910 10913 10916 10919 10920 10925 10929 10934 10939 10942 10944 10943 10947 10948 10950 10951 10952 10955 10958 10959 10962
10821 10824 10824 10824 10826 10826 10828 10829 10831 10833 10836 10838 10842 10851 10859 10863 10863 10869 10875 10881 10888 10895 10899 10904 10909 10911 10912 10916 10918 10922 10929 10929 10937 10941 10940 10944 10947 10950 10952 10953 10952 10955 10959 10961
10812 10816 10818 10818 10820 10820 10821 10823 10825 10827 10829 10831 10836 10847 10852 10852 10854 10859 10864 10868 10876 10886 10891 10896 10900 10904 10906 10909 10912 10918 10924 10929 10931 10935 10935 10938 10940 10946 10948 10950 10951 10951 10953 10957
10803 10808 10808 10811 10814 10814 10814 10817 10820 10821 10824 10828 10830 10837 10844 10842 10846 10849 10853 10859 10864 10872 10882 10886 10891 10895 10898 10901 10906 10911 10916 10920 10924 10928 10929 10931 10935 10939 10941 10945 10946 10947 10949 10952
10793 10795 10799 10803 10806 10806 10808 10810 10814 10817 10820 10823 10827 10829 10832 10838 10838 10841 10844 10849 10853 10859 10868 10877 10883 10887 10889 10893 10898 10904 10907 10912 10917 10922 10923 10926 10929 10933 10935 10937 10941 10944 10945 10946
10781 10782 10788 10793 10796 10799 10801 10803 10808 10811 10815 10818 10820 10823 10826 10830 10831 10831 10836 10842 10844 10849 10856 10864 10872 10878 10882 10887 10891 10895 10900 10903 10908 10913 10917 10920 10923 10924 10928 10930 10933 10938 10942 10943
10768 10770 10775 10780 10787 10792 10792 10796 10799 10802 10806 10810 10814 10818 10821 10824 10827 10829 10834 10836 10837 10842 10846 10851 10858 10867 10871 10878 10885 10888 10890 10894 10899 10905 10908 10912 10915 10918 10921 10925 10928 10931 10935 10934
10752 10758 10762 10767 10776 10781 10783 10790 10793 10797 10801 10806 10810 10814 10814 10817 10819 10822 10827 10828 10831 10835 10837 10840 10847 10854 10860 10864 10871 10879 10882 10885 10889 10894 10897 10902 10905 10910 10914 10917 10920 10924 10926 10928
10732 10742 10749 10758 10764 10772 10772 10779 10784 10791 10797 10802 10803 10809 10810 10809 10810 10817 10819 10822 10825 10825 10829 10833 10836 10842 10848 10852 10856 10863 10872 10876 10878 10881 10886 10889 10893 10898 10905 10909 10913 10916 10920 10922
10719 10732 10741 10747 10755 10763 10767 10770 10774 10784 10785 10790 10797 10801 10804 10805 10807 10811 10815 10815 10816 10819 10823 10826 10829 10833 10837 10842 10845 10848 10855 10864 10868 10871 10875 10878 10880 10885 10892 10900 10904 10907 10910 10913
10711 10723 10731 10737 10747 10752 10755 10760 10768 10774 10780 10782 10787 10794 10799 10801 10802 10802 10803 10804 10808 10814 10816 10818 10821 10824 10826 10830 10835 10839 10844 10850 10854 10857 10862 10866 10870 10874 10879 10885 10890 10895 10897 10898
10693 10710 10721 10727 10733 10735 10741 10753 10760 10765 10773 10775 10778 10785 10791 10795 10796 10796 10796 10797 10802 10805 10808 10810 10812 10814 10817 10821 10824 10828 10834 10835 10839 10843 10848 10853 10858 10863 10868 10871 10876 10881 10884 10888
10679 10694 10705 10710 10713 10725 10730 10741 10748 10754 10763 10767 10770 10774 10779 10782 10786 10789 10790 10793 10796 10798 10800 10802 10805 10807 10808 10810 10815 10819 10823 10824 10828 10832 10834 10838 10843 10849 10854 10860 10864 10867 10872 10875
10663 10678 10689 10696 10706 10713 10720 10728 10736 10740 10751 10758 10762 10765 10769 10772 10775 10779 10783 10787 10789 10791 10794 10796 10797 10799 10801 10801 10805 10809 10812 10814 10818 10820 10824 10827 10829 10833 10839 10843 10848 10852 10856 10860
10650 10666 10677 10687 10697 10702 10709 10714 10722 10729 10740 10747 10753 10757 10761 10764 10767 10770 10775 10778 10781 10783 10786 10788 10789 10792 10793 10793 10795 10799 10802 10804 10807 10810 10812 10813 10816 10821 10824 10827 10831 10835 10840 10844